Location: Jetmore Oil Field
(38.1181°N, 99.9337°W)
Time: 06:27:21
(UTC+00:00)

STARLINK-2751 - Pass Details

Date: 24 June 2021
Orbit: 348 x 351 km, 53.0° (Epoch: 24 July)

Event Time Altitude Azimuth Distance (km) Brightness Sun altitude
Exits shadow 08:11:59 - 91° (E) 1,869 6.6 -25.0°
Enters shadow 09:07:11 -70° 231° (SW) 12,322 10.5 -19.7°
Maximum altitude 09:44:16 85° 316° (NW) 351 2.6 -15.1°
